Ajaccio, France

9:49 PM CEST on August 17, 2017 (GMT +0200)
Campo Dell' Oro

Weather History for LFKJ - October, 2013

Change the Weather History Date:

Wednesday, October 30, 2013

  Actual Average Record
Temperature  
Mean Temperature 67 °F -  
Max Temperature 75 °F 62 °F 75 °F (2005)
Min Temperature 59 °F 45 °F 44 °F (2010)
Cooling Degree Days 2    
Growing Degree Days 17 (Base 50)    
Moisture  
Dew Point 60 °F    
Average Humidity 77    
Maximum Humidity 88    
Minimum Humidity 55    
Precipitation  
Precipitation 0.00 in 0.13 in - ()
Sea Level Pressure  
Sea Level Pressure 29.93 in    
Wind  
Wind Speed 6 mph ()    
Max Wind Speed 12 mph    
Max Gust Speed -    
Visibility 6.8 miles    
Events      
Averages and records for this station are not official NWS values.
T = Trace of Precipitation, MM = Missing Value Source: Averaged Metar Reports

Daily Weather History Graph

Daily Weather History Graph

Search for Another Location

Airport or City:

Trip Planner

Search our weather history database for the weather conditions in past years. The results will help you decide how hot, cold, wet, or windy it might be!

Date:

Astronomy

Oct. 30, 2013 Rise Set
Actual Time 6:54 AM CET 5:21 PM CET
Civil Twilight 6:25 AM CET 5:50 PM CET
Nautical Twilight 5:53 AM CET 6:23 PM CET
Astronomical Twilight 5:20 AM CET 6:55 PM CET
Moon 2:23 AM CET (10/30) 3:01 PM CET (10/30)
Length of Visible Light 11h 24m
Length of Day
10h 26m
Waning Crescent, 19% of the Moon is Illuminated
Oct 30
Waning Crescent
Nov 3
New
Nov 10
First Quarter
Nov 17
Full
Nov 25
Last Quarter

Hourly Weather History & Observations

Time (CET) Temp. Dew Point Humidity Pressure Visibility Wind Dir Wind Speed Gust Speed Precip Events Conditions
12:00 AM 60.8 °F 57.2 °F 88% 29.92 in 6.2 mi NE 4.6 mph - N/A   Scattered Clouds
12:30 AM 60.8 °F 57.2 °F 88% 29.95 in 6.2 mi NE 3.5 mph - N/A   Partly Cloudy
1:00 AM 60 °F 57 °F 88% 29.95 in 12 mi East 4.6 mph - -   Clear
1:00 AM 60.8 °F 57.2 °F 88% 29.92 in 6.2 mi East 4.6 mph - N/A   Unknown
1:30 AM 60.8 °F 57.2 °F 88% 29.92 in 6.2 mi NE 6.9 mph - N/A   Mostly Cloudy
2:00 AM 60.8 °F 57.2 °F 88% 29.92 in 6.2 mi NE 3.5 mph - N/A   Overcast
2:30 AM 60.8 °F 57.2 °F 88% 29.95 in 6.2 mi NE 6.9 mph - N/A   Overcast
3:00 AM 62.6 °F 57.2 °F 82% 29.95 in 6.2 mi ENE 8.1 mph - N/A   Overcast
3:30 AM 62.6 °F 57.2 °F 82% 29.95 in 6.2 mi NNE 5.8 mph - N/A   Overcast
4:00 AM 62.6 °F 59.0 °F 88% 29.92 in 6.2 mi NE 9.2 mph - N/A   Overcast
4:30 AM 64.4 °F 59.0 °F 83% 29.89 in 6.2 mi North 6.9 mph - N/A   Unknown
5:00 AM 66.2 °F 57.2 °F 73% 29.89 in 6.2 mi NE 9.2 mph - N/A   Overcast
5:30 AM 66.2 °F 57.2 °F 73% 29.89 in 6.2 mi ENE 4.6 mph - N/A   Unknown
6:00 AM 64.4 °F 59.0 °F 83% 29.86 in - NE 9.2 mph - N/A   Clear
6:30 AM 66.2 °F 57.2 °F 73% 29.83 in 6.2 mi NE 8.1 mph - N/A   Mostly Cloudy
7:00 AM 69 °F 56 °F 55% 29.82 in 16 mi NE 5.8 mph - -   Partly Cloudy
7:00 AM 68.0 °F 55.4 °F 64% 29.80 in 6.2 mi NE 5.8 mph - N/A   Mostly Cloudy
7:30 AM 68.0 °F 55.4 °F 64% 29.83 in 6.2 mi NW 8.1 mph - N/A   Mostly Cloudy
8:00 AM 69.8 °F 60.8 °F 73% 29.86 in 6.2 mi South 11.5 mph - N/A   Mostly Cloudy
8:30 AM 69.8 °F 62.6 °F 78% 29.89 in 6.2 mi SSW 8.1 mph - N/A   Mostly Cloudy
9:00 AM 69.8 °F 60.8 °F 73% 29.92 in 6.2 mi North 5.8 mph - N/A   Mostly Cloudy
9:30 AM 69.8 °F 60.8 °F 73% 29.95 in 6.2 mi Variable 3.5 mph - N/A   Mostly Cloudy
10:00 AM 71.6 °F 62.6 °F 73% 29.95 in 6.2 mi SE 5.8 mph - N/A   Mostly Cloudy
10:30 AM 73.4 °F 60.8 °F 65% 29.95 in 6.2 mi ENE 6.9 mph - N/A   Mostly Cloudy
11:00 AM 73.4 °F 60.8 °F 65% 29.95 in 6.2 mi North 3.5 mph - N/A   Mostly Cloudy
11:30 AM 73.4 °F 62.6 °F 69% 29.95 in 6.2 mi West 5.8 mph - N/A   Mostly Cloudy
12:00 PM 73.4 °F 62.6 °F 69% 29.92 in 6.2 mi WSW 4.6 mph - N/A   Mostly Cloudy
12:30 PM 75.2 °F 62.6 °F 65% 29.92 in 6.2 mi SSW 5.8 mph - N/A   Mostly Cloudy
1:00 PM 73 °F 64 °F 65% 29.93 in 12 mi SW 8.1 mph - -   Scattered Clouds
1:00 PM 73.4 °F 64.4 °F 73% 29.92 in 6.2 mi SW 9.2 mph - N/A   Mostly Cloudy
1:30 PM 75.2 °F 60.8 °F 61% 29.89 in 6.2 mi SSW 5.8 mph - N/A   Mostly Cloudy
2:00 PM 75.2 °F 60.8 °F 61% 29.89 in 6.2 mi South 9.2 mph - N/A   Mostly Cloudy
2:30 PM 75.2 °F 62.6 °F 65% 29.89 in 6.2 mi South 10.4 mph - N/A   Mostly Cloudy
3:00 PM 75.2 °F 62.6 °F 65% 29.89 in 6.2 mi South 11.5 mph - N/A   Mostly Cloudy
3:30 PM 73.4 °F 64.4 °F 73% 29.92 in 6.2 mi SSW 11.5 mph - N/A   Scattered Clouds
4:00 PM 71.6 °F 64.4 °F 78% 29.92 in 6.2 mi SSW 11.5 mph - N/A   Scattered Clouds
4:30 PM 71.6 °F 64.4 °F 78% 29.92 in 6.2 mi SSW 8.1 mph - N/A   Scattered Clouds
5:00 PM 69.8 °F 64.4 °F 83% 29.92 in 6.2 mi SW 5.8 mph - N/A   Scattered Clouds
5:30 PM 69.8 °F 64.4 °F 83% 29.92 in 6.2 mi SSW 5.8 mph - N/A   Scattered Clouds
6:00 PM 68.0 °F 62.6 °F 83% 29.95 in 6.2 mi ENE 2.3 mph - N/A   Scattered Clouds
6:30 PM 68.0 °F 62.6 °F 83% 29.95 in 6.2 mi Calm Calm - N/A   Scattered Clouds
7:00 PM 67 °F 63 °F 81% 29.98 in 12 mi NE 5.8 mph - -   Mostly Cloudy
7:00 PM 66.2 °F 62.6 °F 88% 29.98 in 6.2 mi NE 5.8 mph - N/A   Scattered Clouds
7:30 PM 66.2 °F 60.8 °F 83% 29.98 in 6.2 mi ENE 4.6 mph - N/A   Scattered Clouds
8:00 PM 64.4 °F 60.8 °F 88% 29.98 in 6.2 mi NE 5.8 mph - N/A   Scattered Clouds
8:30 PM 64.4 °F 59.0 °F 83% 29.98 in 6.2 mi NE 6.9 mph - N/A   Mostly Cloudy
9:00 PM 64.4 °F 59.0 °F 83% 29.98 in - NNE 6.9 mph - N/A   Clear
9:30 PM 62.6 °F 57.2 °F 82% 29.98 in - NE 6.9 mph - N/A   Clear
10:00 PM 62.6 °F 57.2 °F 82% 29.98 in - NE 8.1 mph - N/A   Clear
10:30 PM 60.8 °F 57.2 °F 88% 30.01 in - NE 6.9 mph - N/A   Clear
11:00 PM 60.8 °F 57.2 °F 88% 30.01 in - NE 8.1 mph - N/A   Clear
11:30 PM 60.8 °F 57.2 °F 88% 30.01 in - NE 8.1 mph - N/A   Clear